Time,TemperatureF,DewpointF,PressureIn,WindDirection,WindDirectionDegrees,WindSpeedMPH,WindSpeedGustMPH,Humidity,HourlyPrecipIn,Conditions,Clouds,dailyrainin,SoftwareType,DateUTC
2013-07-19 00:00:00,70.0,53.0,-100.00,North,-999,-999.0,-999.0,54,0.00,,,-99.99,,2013-07-19 06:00:00,
2013-07-19 00:53:00,70.0,53.0,-100.00,North,-999,-999.0,-999.0,54,0.00,,,-99.99,,2013-07-19 06:53:00,
2013-07-19 01:00:00,70.0,53.0,-100.00,North,-999,-999.0,-999.0,55,0.00,,,-99.99,,2013-07-19 07:00:00,
2013-07-19 01:53:00,70.0,53.0,-100.00,North,-999,-999.0,-999.0,55,0.00,,,-99.99,,2013-07-19 07:53:00,
2013-07-19 02:00:00,68.0,54.0,-100.00,North,-999,-999.0,-999.0,60,0.00,,,-99.99,,2013-07-19 08:00:00,
2013-07-19 02:52:00,68.0,54.0,-100.00,North,-999,-999.0,-999.0,60,0.00,,,-99.99,,2013-07-19 08:52:00,
2013-07-19 03:00:00,66.0,56.0,-100.00,North,-999,-999.0,-999.0,69,0.00,,,-99.99,,2013-07-19 09:00:00,
2013-07-19 03:52:00,66.0,56.0,-100.00,North,-999,-999.0,-999.0,69,0.00,,,-99.99,,2013-07-19 09:52:00,
2013-07-19 04:00:00,65.0,57.0,-100.00,North,-999,-999.0,-999.0,74,0.00,,,-99.99,,2013-07-19 10:00:00,
2013-07-19 04:52:00,65.0,57.0,-100.00,North,-999,-999.0,-999.0,74,0.00,,,-99.99,,2013-07-19 10:52:00,
2013-07-19 05:00:00,64.0,56.0,-100.00,North,-999,-999.0,-999.0,75,0.00,,,-99.99,,2013-07-19 11:00:00,
2013-07-19 05:52:00,64.0,56.0,-100.00,North,-999,-999.0,-999.0,75,0.00,,,-99.99,,2013-07-19 11:52:00,
2013-07-19 06:52:00,64.0,55.0,-100.00,North,-999,-999.0,-999.0,71,0.00,,,-99.99,,2013-07-19 12:52:00,
2013-07-19 08:00:00,76.0,55.0,-100.00,North,-999,-999.0,-999.0,47,0.00,,,-99.99,,2013-07-19 14:00:00,
2013-07-19 08:53:00,76.0,55.0,-100.00,North,-999,-999.0,-999.0,47,0.00,,,-99.99,,2013-07-19 14:53:00,
2013-07-19 09:00:00,76.0,53.0,-100.00,North,-999,-999.0,-999.0,44,0.00,,,-99.99,,2013-07-19 15:00:00,
2013-07-19 09:52:00,76.0,53.0,-100.00,North,-999,-999.0,-999.0,44,0.00,,,-99.99,,2013-07-19 15:52:00,
2013-07-19 10:00:00,79.0,51.0,-100.00,North,-999,-999.0,-999.0,37,0.00,,,-99.99,,2013-07-19 16:00:00,
2013-07-19 10:53:00,79.0,51.0,-100.00,North,-999,-999.0,-999.0,37,0.00,,,-99.99,,2013-07-19 16:53:00,
2013-07-19 11:00:00,80.0,48.0,-100.00,North,-999,-999.0,-999.0,31,0.00,,,-99.99,,2013-07-19 17:00:00,
2013-07-19 11:52:00,80.0,48.0,-100.00,North,-999,-999.0,-999.0,31,0.00,,,-99.99,,2013-07-19 17:52:00,
2013-07-19 13:00:00,80.0,50.0,-100.00,North,-999,-999.0,-999.0,36,0.00,,,-99.99,,2013-07-19 19:00:00,
2013-07-19 13:52:00,80.0,50.0,-100.00,North,-999,-999.0,-999.0,36,0.00,,,-99.99,,2013-07-19 19:52:00,
2013-07-19 14:00:00,78.0,53.0,-100.00,North,-999,-999.0,-999.0,41,0.00,,,-99.99,,2013-07-19 20:00:00,
2013-07-19 14:52:00,78.0,53.0,-100.00,North,-999,-999.0,-999.0,41,0.00,,,-99.99,,2013-07-19 20:52:00,
2013-07-19 15:00:00,77.0,54.0,-100.00,North,-999,-999.0,-999.0,44,0.00,,,-99.99,,2013-07-19 21:00:00,
2013-07-19 15:52:00,77.0,54.0,-100.00,North,-999,-999.0,-999.0,44,0.00,,,-99.99,,2013-07-19 21:52:00,
2013-07-19 16:00:00,78.0,54.0,-100.00,North,-999,-999.0,-999.0,44,0.00,,,-99.99,,2013-07-19 22:00:00,
2013-07-19 16:52:00,78.0,54.0,-100.00,North,-999,-999.0,-999.0,44,0.00,,,-99.99,,2013-07-19 22:52:00,
2013-07-19 18:00:00,77.0,57.0,-100.00,North,-999,-999.0,-999.0,49,0.00,,,-99.99,,2013-07-20 00:00:00,
2013-07-19 18:43:00,77.0,57.0,-100.00,North,-999,-999.0,-999.0,49,0.00,,,-99.99,,2013-07-20 00:43:00,
2013-07-19 18:52:00,77.0,57.0,-100.00,North,-999,-999.0,-999.0,49,0.00,,,-99.99,,2013-07-20 00:52:00,
2013-07-19 19:00:00,75.0,57.0,-100.00,North,-999,-999.0,-999.0,51,0.00,,,-99.99,,2013-07-20 01:00:00,
2013-07-19 19:52:00,75.0,57.0,-100.00,North,-999,-999.0,-999.0,51,0.00,,,-99.99,,2013-07-20 01:52:00,
2013-07-19 20:00:00,74.0,56.0,-100.00,North,-999,-999.0,-999.0,52,0.00,,,-99.99,,2013-07-20 02:00:00,
2013-07-19 20:44:00,74.0,56.0,-100.00,North,-999,-999.0,-999.0,52,0.00,,,-99.99,,2013-07-20 02:44:00,
2013-07-19 20:52:00,74.0,56.0,-100.00,North,-999,-999.0,-999.0,52,0.00,,,-99.99,,2013-07-20 02:52:00,
2013-07-19 21:00:00,73.0,55.0,-100.00,North,-999,-999.0,-999.0,54,0.00,,,-99.99,,2013-07-20 03:00:00,
2013-07-19 21:22:00,74.0,56.0,-100.00,North,-999,-999.0,-999.0,52,0.00,,,-99.99,,2013-07-20 03:22:00,
2013-07-19 21:32:00,73.0,55.0,-100.00,North,-999,-999.0,-999.0,54,0.00,,,-99.99,,2013-07-20 03:32:00,
2013-07-19 21:53:00,73.0,55.0,-100.00,North,-999,-999.0,-999.0,54,0.00,,,-99.99,,2013-07-20 03:53:00,
2013-07-19 22:00:00,70.0,56.0,-100.00,North,-999,-999.0,-999.0,59,0.00,,,-99.99,,2013-07-20 04:00:00,
2013-07-19 22:52:00,70.0,56.0,-100.00,North,-999,-999.0,-999.0,59,0.00,,,-99.99,,2013-07-20 04:52:00,
2013-07-19 23:00:00,70.0,56.0,-100.00,North,-999,-999.0,-999.0,61,0.00,,,-99.99,,2013-07-20 05:00:00,
2013-07-19 23:52:00,70.0,56.0,-100.00,North,-999,-999.0,-999.0,61,0.00,,,-99.99,,2013-07-20 05:52:00,